Location: Red Rock Canyon
(36.1333°N, 115.4333°W)
Time: 18:16:23
(UTC-07:00)

ISS - Visible Passes

Search period start: 30 July 2014 00:00
Search period end: 09 August 2014 00:00
Orbit: 411 x 419 km, 51.6° (Epoch: 30 July)

Date Brightness Start Highest point End Pass type
(mag) Time Alt. Az. Time Alt. Az. Time Alt. Az.
30 Jul -0.2 04:42:40 10° NNW 04:44:57 17° NNE 04:47:14 10° ENE visible
31 Jul 0.1 03:54:30 10° N 03:55:53 12° NNE 03:57:16 10° NE visible
01 Aug -1.6 04:41:05 10° NNW 04:44:15 37° NE 04:47:23 10° ESE visible
01 Aug -2.4 21:21:18 10° SSW 21:23:26 34° S 21:23:26 34° S visible
02 Aug -0.7 03:52:32 10° NNW 03:55:17 23° NNE 03:58:02 10° E visible
02 Aug -2.3 20:32:58 10° S 20:35:47 26° SE 20:38:37 10° ENE visible
02 Aug -1.2 22:09:30 10° W 22:12:26 28° NNW 22:14:16 17° NNE visible
03 Aug -0.1 03:04:06 10° NNW 03:06:14 16° NNE 03:08:22 10° ENE visible
03 Aug -3.4 04:39:56 10° NW 04:43:16 71° SW 04:46:36 10° SE visible
03 Aug -2.3 21:20:16 10° WSW 21:23:29 47° NW 21:26:44 10° NE visible
03 Aug 0.4 23:00:41 10° NNW 23:00:52 10° NNW 23:01:03 10° NNW visible
04 Aug -2.7 03:52:25 22° NW 03:54:25 59° NE 03:57:44 10° ESE visible
04 Aug -3.3 20:31:17 10° SW 20:34:36 89° SE 20:37:56 10° NE visible
04 Aug 0.0 22:09:55 10° WNW 22:11:43 14° NNW 22:13:32 10° N visible
05 Aug -1.5 04:43:29 16° SSW 04:43:29 16° SSW 04:44:40 10° S visible
05 Aug -0.5 21:20:07 10° W 21:22:38 20° NNW 21:25:11 10° NNE visible
06 Aug -1.2 20:30:37 10° W 20:33:37 31° NW 20:36:37 10° NNE visible
07 Aug 0.1 21:21:10 10° NW 21:21:59 11° NNW 21:22:47 10° N visible
08 Aug -0.2 20:30:50 10° WNW 20:32:49 15° NNW 20:34:48 10° N visible
